Regional Weather Roundup
Issued by NWS

Home | Current Version | Previous Version | Text Only | Print | Product List | Glossary Off
Versions: 1 2 3 4 5 6 7 8 9 10 11 12 13 14 15 16 17 18 19 20 21 22 23 24 25 26 27 28 29 30 31 32 33 34 35 36 37 38 39 40 41 42 43 44 45 46 47 48 49 50

806
ASUS43 KOAX 162210
RWRNE

WEATHER ROUNDUP FOR NEBRASKA
NATIONAL WEATHER SERVICE OMAHA NE
400 PM CST MON JAN 16 2017

NOTES: SATELLITE DATA IS BEING USED TO AUGMENT CLOUD COVER ABOVE
       12000 FEET.
       "FAIR" INDICATES FEW OR NO CLOUDS BELOW 12,000 FEET WITH NO
       SIGNIFICANT WEATHER AND/OR OBSTRUCTIONS TO VISIBILITY.

  * THESE STATIONS DO NOT REPORT WEATHER SUCH AS RAIN...SNOW OR FOG.

NEZ001>004-019>022-054>056-162300-
NEBRASKA PANHANDLE

CITY           SKY/WX    TMP DP  RH WIND       PRES   REMARKS
SCOTTSBLUFF    CLOUDY    41  19  41 N13       30.06R
ALLIANCE       CLOUDY    38  15  39 N15       30.04R WCI  29
CHADRON        SUNNY     33  21  61 W8        30.07S WCI  26
KIMBALL        CLOUDY    37  21  53 N10       30.05R WCI  29
SIDNEY         CLOUDY    36  20  52 N16       30.03R WCI  26
$$

NEZ057>060-069>072-079>082-162300-
SOUTHWEST NEBRASKA

CITY           SKY/WX    TMP DP  RH WIND       PRES   REMARKS
NORTH PLATTE   CLOUDY    38  31  76 N10       29.98S WCI  31
IMPERIAL       CLOUDY    35  28  75 NW16      30.00R WCI  25
LEXINGTON      CLOUDY    34  31  90 N15       29.96R WCI  24
MCCOOK         CLOUDY    35  33  92 N14       29.97R FOG     WCI  26
OGALLALA       CLOUDY    37  29  75 NW13      30.01R WCI  28
$$

NEZ005>010-023>029-035>040-094-162300-
NORTH CENTRAL NEBRASKA

CITY           SKY/WX    TMP DP  RH WIND       PRES   REMARKS
VALENTINE      CLOUDY    34  15  46 NW15      30.02S WCI  24
AINSWORTH      CLOUDY    35  23  60 NW14      29.99S WCI  26
BROKEN BOW     CLOUDY    33  30  88 N17       29.95R WCI  22
O`NEILL        CLOUDY    32  29  90 NW12      29.98S WCI  23
ORD            CLOUDY    32  27  81 N14       29.95R WCI  22
THEDFORD       CLOUDY    38  24  56 N14       29.99S WCI  29
$$

NEZ041-046>049-061>064-073>077-083>087-162300-
SOUTH CENTRAL NEBRASKA

CITY           SKY/WX    TMP DP  RH WIND       PRES   REMARKS
GRAND ISLAND   FRZ RAIN N/A N/A N/A N12       29.91S FOG
AURORA         CLOUDY    32  32 100 N3        29.91R
HASTINGS       LGT RAIN  33  31  92 N14       29.92R WCI  23
HEBRON         CLOUDY    32  32  99 N3        29.89R FOG
HOLDREGE       DRIZZLE   33  32  97 N3        29.93R
KEARNEY *      CLOUDY    34  28  80 N6        29.94R WCI  29
YORK           MOSUNNY   32  32 100 CALM      29.91R
$$

NEZ011>018-030>034-042>045-162300-
NORTHEAST NEBRASKA

CITY           SKY/WX    TMP DP  RH WIND       PRES   REMARKS
NORFOLK        MIX PCPN  31  29  92 N13G18    29.92S FOG     WCI  21
ALBION         MIX PCPN  32  30  92 N5        29.93S WCI  27
BLAIR          CLOUDY    33  32  98 N7        29.88R FOG     WCI  27
FREMONT        CLOUDY    33  33 100 N7        29.91R FOG     WCI  26
TEKAMAH        LGT RAIN  33  32  96 N13       29.91S WCI  24
WAYNE          LGT SNOW  32  31  96 N5        29.95R WCI  27
$$

NEZ050>053-065>068-078-088>093-162300-
SOUTHEAST NEBRASKA

CITY           SKY/WX    TMP DP  RH WIND       PRES   REMARKS
LINCOLN        CLOUDY    33  32  96 N15       29.90R WCI  23
OMAHA EPPLEY   CLOUDY    35  31  85 N10       29.90R FOG     WCI  27
BEATRICE       CLOUDY    33  33 100 N5        29.87R FOG     WCI  28
FALLS CITY     FOG       36  36 100 NW6       29.84R VSB 1/4 WCI  31
NEBRASKA CITY  FOG       33  33 100 N12       29.86R VSB 1   WCI  24
PLATTSMOUTH    CLOUDY    33  32  95 N5        29.87S FOG     WCI  29
$$

NEZ044-045-051>053-067-162300-
OMAHA AREA

CITY           SKY/WX    TMP DP  RH WIND       PRES   REMARKS
OMAHA EPPLEY   CLOUDY    35  31  85 N10       29.90R FOG     WCI  27
BLAIR          CLOUDY    33  32  98 N7        29.88R FOG     WCI  27
FREMONT        CLOUDY    33  33 100 N7        29.91R FOG     WCI  26
MILLARD        CLOUDY    36  34  94 N3        29.89S
OFFUTT AFB     CLOUDY    35  35 100 N7        29.88R WCI  29
PLATTSMOUTH    CLOUDY    33  32  95 N5        29.87S FOG     WCI  29
WAHOO          CLOUDY    32  32  99 N13       29.90R WCI  23
$$




USA.gov is the U.S. government's official web portal to all federal, state and local government web resources and services.